{"data":{"norad_id":57115,"intl_designator":"2023-090Q","name":"STARLINK-6085","alt_names":[],"object_type":"PAYLOAD","status":"ACTIVE","operator":null,"country":"US","launch_date":"2023-06-23","launch_site_code":"AFETR","launch_vehicle":null,"mission":null,"orbit_class":"UNKNOWN","rcs_meters":null,"size_class":null,"mass_kg":null,"dimensions":null,"purposes":["comms"],"wikipedia_slug":null,"has_3d_model":false,"image_url":null,"decayed_at":null,"tle_current":{"epoch":"2026-09-20T08:31:23.957760Z","epoch_age_seconds":133490,"freshness":"FRESH","line1":"1 57115U 23090Q   26263.35513840  .00015237  00000+0  68149-3 0  9999","line2":"2 57115  42.9996 261.4305 0017563  18.6009 341.5479 15.20976875180111","mean_motion":15.20976875,"eccentricity":0.0017563,"inclination_deg":42.9996,"raan_deg":261.4305,"arg_perigee_deg":18.6009,"mean_anomaly_deg":341.5479,"bstar":0.00068149,"rev_number":18011,"period_min":94.675995649178,"perigee_km":490.80757259042,"apogee_km":514.9778776028,"semimajor_km":6881.0297250966,"source":"CELESTRAK","updated_at":"2026-09-21T09:00:33.560874Z"}}}